Weather Roundup
Issued by NWS Chicago, IL

Home | Current Version | Previous Version | Graphics & Text | Print | Product List | Glossary On
Versions: 1 2 3 4 5 6 7 8 9 10 11 12 13 14 15 16 17 18 19 20 21 22 23 24 25 26 27 28 29 30 31 32 33 34 35 36 37 38 39 40 41 42 43 44 45 46 47 48 49 50
000
NZUS59 KLOT 061406
HRRLOT

CHICAGO AREA WEATHER ROUNDUP
NATIONAL WEATHER SERVICE CHICAGO/ROMEOVILLE IL
800 AM CST FRI MAR 06 2015

NOTE: "FAIR" INDICATES FEW OR NO CLOUDS BELOW 12,000 FEET WITH NO
SIGNIFICANT WEATHER AND/OR OBSTRUCTIONS TO VISIBILITY.

* THESE STATIONS ARE NOT UNDER NWS QUALITY CONTROL. THEY ALSO MAY NOT
  REPORT WEATHER SUCH AS PRECIPITATION OR FOG.

ILZ005-006-012>014-019>023-061500-
NORTHEAST ILLINOIS

CITY           SKY/WX    TMP DP  RH WIND       PRES   REMARKS
OHARE          PTSUNNY    9   0  67 SW14G21   30.41F WCI  -7
MIDWAY         MOSUNNY   10   1  67 SW13      30.44F WCI  -5
AURORA         MOSUNNY    4  -2  76 S7        30.43S WCI  -8
LANSING*       SUNNY      4  -3  74 S13       30.47S WCI -13
JOLIET*        SUNNY      8   1  75 S9        30.46S WCI  -6
WAUKEGAN       SUNNY      7  -1  70 S14       30.38F WCI -10
DUPAGE AIRPORT SUNNY      6  -1  73 S10       30.41S WCI  -9
WHEELING       SUNNY      9  -1  64 S9        30.43F WCI  -4
KANKAKEE*      SUNNY      6  -1  76 S10       30.49S WCI  -9
MORRIS*        MOSUNNY    4   1  84 S8        30.46R WCI  -9
LEWIS AIRPORT* SUNNY      8   1  74 SW14      30.45R WCI  -9
NORTHERLY IS     N/A     10   0  63 S10         N/A  WCI  -4
$$

WIZ051-052-058>065-066-070>072-061500-
SOUTHEAST WISCONSIN

CITY           SKY/WX    TMP DP  RH WIND       PRES   REMARKS
MILWAUKEE      MOSUNNY    5  -4  66 SW15      30.35F WCI -13
KENOSHA*       SUNNY      7  -2  66 SW12      30.37F WCI  -8
RACINE*        SUNNY      6  -3  66 SW10      30.38F WCI  -9
BURLINGTON     MOSUNNY    4  -1  79 S13       30.35F WCI -13
WAUKESHA       SUNNY      1  -6  71 S6        30.33F WCI -10
WEST BEND      SUNNY     10   0  61 SW8       30.30S WCI  -1
$$

INZ001>003-010>013-019-020-061500-
NORTHWEST INDIANA

CITY           SKY/WX    TMP DP  RH WIND       PRES   REMARKS
GARY*          MOSUNNY    9  -2  61 S17       30.47S WCI -10
MICHIGAN CITY* NOT AVBL
RENSSELAER*    NOT AVBL
VALPARAISO     MOSUNNY    2  -3  80 S7        30.47R WCI -11
$$

LMZ740>746-061500-
SOUTHERN LAKE MICHIGAN

STATION/POSITION TIME  SKY/WX   TEMP WIND        PRES    VSBY
                                AIR  DIR/SP/G
                 (UTC)          (F)  (DEG/KT/KT) (MB)    (MI)
HARRISON CRIB    1400            10  210/ 21/ 25   N/A
BURNHAM HARBOR   1400            11  210/  9/ 14   N/A
CALUMET HARBOR   1400             9  180/  8/ 12 1029.7F
BURNS HARBOR     NOT AVBL
MICHIGAN CITY    1400             6  170/ 11/ 16   N/A
$$

ABBREVIATIONS USED IN REMARKS
   TC - TEMPERATURE IN CELSIUS
  WCI - WIND CHILL INDEX
   HX - HEAT INDEX
  VSB - VISIBILITY
$$


USA.gov is the U.S. government's official web portal to all federal, state and local government web resources and services.